Location: Bessat
(45.8735°N, 1.9924°E)
Time: 09:10:45
(UTC+00:00)

GPS 2-04 Rocket1 - Pass Details

Date: 11 May 2021
Orbit: 416 x 540 km, 35.6° (Epoch: 15 June)

Event Time Altitude Azimuth Distance (km) Brightness Sun altitude
Rises 20:22:47 0° 232° (SW) 2,674 6.5 -10.9°
Reaches altitude 10° 20:25:40 10° 211° (SSW) 1,773 5.3 -11.3°
Maximum altitude 20:28:20 17° 171° (S) 1,378 4.4 -11.7°
Enters shadow 20:29:12 16° 155° (SSE) 1,418 4.4 -11.8°
